Cahokia, IL

9:40 PM CST on December 14, 2019 (GMT -0600)
Saint Louis Downtown

Weather History for KCPS - November, 2019

Change the Weather History Date:

Tuesday, November 12, 2019

  Actual Average Record
Temperature  
Mean Temperature 16 °F -  
Max Temperature 21 °F 54 °F 75 °F (1958)
Min Temperature 10 °F 38 °F 10 °F (2019)
Degree Days  
Heating Degree Days 48    
Moisture  
Dew Point 5 °F    
Average Humidity 63    
Maximum Humidity 74    
Minimum Humidity 50    
Precipitation  
Precipitation 0.00 in - - ()
Sea Level Pressure  
Sea Level Pressure 30.58 in    
Wind  
Wind Speed 12 mph (North)    
Max Wind Speed 20 mph    
Max Gust Speed 31 mph    
Visibility 10 miles    
Events      
Averages and records for this station are not official NWS values.
T = Trace of Precipitation, MM = Missing Value Source: NWS Daily Summary

Daily Weather History Graph

Daily Weather History Graph

Search for Another Location

Airport or City:

Astronomy

Nov. 12, 2019 Rise Set
Actual Time 6:39 AM CST 4:50 PM CST
Civil Twilight 6:10 AM CST 5:18 PM CST
Nautical Twilight 5:39 AM CST 5:50 PM CST
Astronomical Twilight 5:07 AM CST 6:21 PM CST
Moon 5:16 PM CST (11/12) 6:31 AM CST (11/12)
Length of Visible Light 11h 07m
Length of Day
10h 10m
Full, 100% of the Moon is Illuminated
Nov 12
Full
Nov 19
Last Quarter
Nov 26
New
Dec 4
First Quarter
Dec 11
Full

Hourly Weather History & Observations

Time (CST) Temp. Windchill Dew Point Humidity Pressure Visibility Wind Dir Wind Speed Gust Speed Precip Events Conditions
12:53 AM 16.0 °F 0.6 °F 3.9 °F 59% 30.58 in 10.0 mi NNW 16.1 mph 31.1 mph N/A   Clear
1:53 AM 15.1 °F -0.1 °F 5.0 °F 64% 30.59 in 10.0 mi NNW 15.0 mph - N/A   Clear
2:53 AM 15.1 °F -2.0 °F 3.9 °F 61% 30.59 in 10.0 mi NNW 19.6 mph 26.5 mph N/A   Clear
3:53 AM 14.0 °F -2.0 °F 3.9 °F 64% 30.61 in 10.0 mi NNW 16.1 mph 27.6 mph N/A   Clear
4:53 AM 12.9 °F -4.9 °F 3.0 °F 65% 30.61 in 10.0 mi NNW 19.6 mph - N/A   Clear
5:53 AM 12.9 °F -3.9 °F 3.0 °F 65% 30.62 in 10.0 mi NNW 17.3 mph - N/A   Clear
6:53 AM 12.0 °F -4.5 °F 3.0 °F 67% 30.64 in 10.0 mi NNW 16.1 mph - N/A   Clear
7:53 AM 12.9 °F -2.8 °F 3.0 °F 65% 30.66 in 10.0 mi NNW 15.0 mph - N/A   Clear
8:53 AM 14.0 °F 2.0 °F 3.9 °F 64% 30.67 in 10.0 mi NNW 9.2 mph - N/A   Clear
9:53 AM 16.0 °F 4.4 °F 3.9 °F 59% 30.66 in 10.0 mi NNW 9.2 mph - N/A   Clear
11:53 AM 19.0 °F 11.1 °F 6.1 °F 57% 30.64 in 10.0 mi North 5.8 mph - N/A   Clear
12:53 PM 19.0 °F 13.9 °F 5.0 °F 54% 30.61 in 10.0 mi Variable 3.5 mph - N/A   Clear
1:53 PM 19.9 °F 11.1 °F 5.0 °F 52% 30.59 in 10.0 mi NNW 6.9 mph - N/A   Clear
2:53 PM 21.0 °F 12.4 °F 5.0 °F 50% 30.56 in 10.0 mi NNW 6.9 mph - N/A   Clear
3:53 PM 21.0 °F 16.2 °F 5.0 °F 50% 30.55 in 10.0 mi NNE 3.5 mph - N/A   Clear
4:53 PM 19.0 °F 13.9 °F 7.0 °F 59% 30.56 in 10.0 mi North 3.5 mph - N/A   Clear
5:53 PM 16.0 °F 10.4 °F 7.0 °F 68% 30.55 in 10.0 mi ENE 3.5 mph - N/A   Clear
6:53 PM 14.0 °F 8.2 °F 7.0 °F 74% 30.53 in 10.0 mi SE 3.5 mph - N/A   Clear
7:53 PM 12.9 °F 5.2 °F 6.1 °F 74% 30.52 in 10.0 mi SSE 4.6 mph - N/A   Clear
8:53 PM 12.9 °F 5.2 °F 5.0 °F 71% 30.51 in 10.0 mi SSE 4.6 mph - N/A   Clear
9:53 PM 12.0 °F 4.1 °F 5.0 °F 73% 30.49 in 10.0 mi SSE 4.6 mph - N/A   Clear
10:53 PM 12.0 °F 4.1 °F 3.9 °F 70% 30.47 in 10.0 mi SSE 4.6 mph - N/A   Clear
11:53 PM 10.9 °F 1.4 °F 3.9 °F 73% 30.46 in 10.0 mi SSE 5.8 mph - N/A   Clear